This demonstration page uses our WeatherBlox Daily Observations layout. Learn more.

Left ArrowRight Arrow

38.88101, -77.10428

Hourly Observations for October 15, 2022

Temp ( °F °C ) Dew Point ( °F °C ) Humidity (%) Winds ( mph kmh ) Pressure ( in mb ) Visibility ( mi km ) Precip ( " mm )
12:52 am 00:52 Clear 54 12.2 46 7.8 74 74 Calm 30.03 1017 10 16 0.00 0.00
1:52 am 01:52 Clear 53 11.7 47 8.3 80 80 Calm 30.04 1017 10 16 0.00 0.00
2:52 am 02:52 Clear 52 11.1 46 7.8 80 80 Calm 30.04 1017 10 16 0.00 0.00
3:52 am 03:52 Clear 51 10.6 46 7.8 83 83 Calm 30.03 1017 10 16 0.00 0.00
4:52 am 04:52 Clear 51 10.6 46 7.8 83 83 Calm 30.04 1017 10 16 0.00 0.00
5:52 am 05:52 Mostly Clear 51 10.6 48 8.9 89 89 SW 3 6 30.04 1017 10 16 0.00 0.00
6:52 am 06:52 Mostly Clear 50 10 44 6.7 80 80 SE 3 6 30.04 1017 10 16 0.00 0.00
7:52 am 07:52 Mostly Sunny 50 10 46 7.8 86 86 SW 3 6 30.04 1017 10 16 0.00 0.00
8:52 am 08:52 Mostly Sunny 54 12.2 48 8.9 80 80 S 9 15 30.05 1018 10 16 0.00 0.00
9:52 am 09:52 Mostly Sunny 58 14.4 49 9.4 72 72 S 9 15 30.05 1018 10 16 0.00 0.00
10:52 am 10:52 Mostly Sunny 62 16.7 49 9.4 62 62 S 13 20 30.02 1017 10 16 0.00 0.00
11:52 am 11:52 Mostly Sunny 67 19.4 49 9.4 52 52 S 13 20 30.00 1016 10 16 0.00 0.00
12:52 pm 12:52 Mostly Sunny 71 21.7 48 8.9 44 44 S 15 24 29.97 1015 10 16 0.00 0.00
1:52 pm 13:52 Mostly Sunny 72 22.2 51 10.6 48 48 S 14 22 29.94 1014 10 16 0.00 0.00
2:52 pm 14:52 Mostly Sunny 75 23.9 46 7.8 36 36 SSW 13 20 29.92 1013 10 16 0.00 0.00
3:52 pm 15:52 Sunny 76 24.4 46 7.8 35 35 S 15 24 29.91 1013 10 16 0.00 0.00
4:52 pm 16:52 Sunny 75 23.9 48 8.9 38 38 SSW 12 19 29.92 1013 10 16 0.00 0.00
5:52 pm 17:52 Mostly Sunny 73 22.8 48 8.9 41 41 SSW 9 15 29.93 1013 10 16 0.00 0.00
6:52 pm 18:52 Clear 69 20.6 48 8.9 47 47 SSW 8 13 29.93 1014 10 16 0.00 0.00
7:52 pm 19:52 Clear 65 18.3 54 12.2 68 68 S 7 11 29.95 1014 10 16 0.00 0.00
8:52 pm 20:52 Clear 65 18.3 52 11.1 63 63 SSW 5 7 29.95 1014 10 16 0.00 0.00
9:52 pm 21:52 Clear 62 16.7 54 12.2 75 75 SSW 5 7 29.96 1015 10 16 0.00 0.00
10:52 pm 22:52 Clear 62 16.7 50 10 65 65 Calm 29.98 1015 10 16 0.00 0.00
11:52 pm 23:52 Clear 58 14.4 52 11.1 81 81 SSW 3 6 29.98 1015 10 16 0.00 0.00

Powered by AerisWeather